BAW880 EBBR-EGCC

Flight info

Callsign BAW880
Flight time N/A
Altitude 36000
Route DENUT L610 LAM UN57 WELIN T420 ELVOS
Aircraft A35K/H-SDE2E3GHIJ3J4J5LM1ORWXY/LB1D1

Departure

Time N/A
Airport Brussels Airport (EBBR)

Arrival

Time 2026-05-03 20:38
Airport Manchester Airport (EGCC)
Time Latitude Longitude Altitude Speed Heading
2026-05-03 20:28 53.11579 -1.78919 12241 ft 302 kts 309°
2026-05-03 20:28 53.12922 -1.81534 12073 ft 290 kts 308°
2026-05-03 20:28 53.14208 -1.84044 11863 ft 281 kts 309°
2026-05-03 20:29 53.15468 -1.86503 11514 ft 277 kts 309°
2026-05-03 20:29 53.16714 -1.88935 11134 ft 274 kts 308°
2026-05-03 20:29 53.17944 -1.91336 10816 ft 271 kts 308°
2026-05-03 20:29 53.19165 -1.93720 10407 ft 270 kts 309°
2026-05-03 20:30 53.20386 -1.96108 10008 ft 270 kts 308°
2026-05-03 20:30 53.21582 -1.98448 9641 ft 267 kts 308°
2026-05-03 20:30 53.22780 -2.00795 9251 ft 264 kts 308°
2026-05-03 20:30 53.23830 -2.03283 8752 ft 263 kts 291°
2026-05-03 20:31 53.24049 -2.06287 8264 ft 263 kts 265°
2026-05-03 20:31 53.23852 -2.09289 7991 ft 257 kts 262°
2026-05-03 20:31 53.23565 -2.12229 7957 ft 257 kts 260°
2026-05-03 20:31 53.23254 -2.15175 7959 ft 257 kts 260°
2026-05-03 20:32 53.22943 -2.18105 7954 ft 256 kts 260°
2026-05-03 20:32 53.22630 -2.21035 7970 ft 256 kts 260°
2026-05-03 20:32 53.22319 -2.23936 7827 ft 250 kts 260°
2026-05-03 20:32 53.22013 -2.26788 7275 ft 251 kts 260°
2026-05-03 20:33 53.21700 -2.29669 6597 ft 253 kts 260°
2026-05-03 20:33 53.21383 -2.32535 5840 ft 255 kts 260°
2026-05-03 20:33 53.21057 -2.35457 5084 ft 257 kts 260°
2026-05-03 20:33 53.20719 -2.38388 4394 ft 256 kts 260°
2026-05-03 20:34 53.20389 -2.41251 4040 ft 248 kts 260°
2026-05-03 20:34 53.20185 -2.44094 3662 ft 247 kts 275°
2026-05-03 20:34 53.20698 -2.46767 3262 ft 242 kts 305°
2026-05-03 20:34 53.21794 -2.48863 3019 ft 239 kts 319°
2026-05-03 20:35 53.23162 -2.50383 2982 ft 236 kts 344°
2026-05-03 20:35 53.24753 -2.50615 2992 ft 229 kts 12°
2026-05-03 20:35 53.26287 -2.49922 2986 ft 232 kts 25°
2026-05-03 20:35 53.27545 -2.48199 2997 ft 240 kts 55°
2026-05-03 20:36 53.28187 -2.45607 2998 ft 244 kts 76°
2026-05-03 20:36 53.28479 -2.42810 2585 ft 243 kts 81°
2026-05-03 20:36 53.28615 -2.40972 2189 ft 238 kts 81°
2026-05-03 20:36 53.29551 -2.38096 1954 ft 202 kts 42°
2026-05-03 20:37 53.30542 -2.36445 1520 ft 196 kts 48°
2026-05-03 20:37 53.31413 -2.34762 1035 ft 189 kts 49°
2026-05-03 20:37 53.32213 -2.33121 650 ft 171 kts 46°
2026-05-03 20:37 53.32906 -2.31659 373 ft 152 kts 51°
2026-05-03 20:38 53.33334 -2.30783 261 ft 142 kts 51°
2026-05-03 20:38 53.33916 -2.29602 239 ft 122 kts 57°
2026-05-03 20:38 53.34378 -2.28624 231 ft 84 kts 50°
2026-05-03 20:38 53.34639 -2.28211 240 ft 41 kts 25°
2026-05-03 20:39 53.34848 -2.28072 240 ft 29 kts 26°
2026-05-03 20:39 53.34986 -2.27834 238 ft 28 kts 51°
2026-05-03 20:39 53.35111 -2.27577 240 ft 28 kts 51°
2026-05-03 20:39 53.35234 -2.27322 244 ft 28 kts 51°
2026-05-03 20:40 53.35330 -2.27193 249 ft 0 kts
2026-05-03 20:43 53.35334 -2.27192 250 ft 7 kts
2026-05-03 20:43 53.35444 -2.27285 253 ft 21 kts 321°
2026-05-03 20:44 53.35532 -2.27404 253 ft 9 kts 321°
2026-05-03 20:44 53.35550 -2.27428 252 ft 0 kts 321°
2026-05-03 20:45 53.35553 -2.27432 252 ft 4 kts 321°
2026-05-03 20:46 53.35620 -2.27523 251 ft 15 kts 321°
2026-05-03 20:46 53.35655 -2.27571 252 ft 7 kts 321°
2026-05-03 20:46 53.35705 -2.27626 253 ft 10 kts 334°
2026-05-03 20:46 53.35768 -2.27656 257 ft 8 kts 355°
2026-05-03 20:47 53.35816 -2.27646 260 ft 6 kts
2026-05-03 20:47 53.35866 -2.27634 261 ft 9 kts
2026-05-03 20:47 53.35940 -2.27627 261 ft 12 kts 356°
2026-05-03 20:47 53.36035 -2.27622 261 ft 15 kts
2026-05-03 20:48 53.36087 -2.27733 261 ft 21 kts 282°
2026-05-03 20:48 53.36157 -2.27976 261 ft 21 kts 324°
2026-05-03 20:48 53.36267 -2.28153 261 ft 23 kts 315°
2026-05-03 20:48 53.36387 -2.28359 261 ft 25 kts 305°
2026-05-03 20:49 53.36480 -2.28590 261 ft 21 kts 314°
2026-05-03 20:49 53.36588 -2.28771 261 ft 22 kts 326°
2026-05-03 20:49 53.36648 -2.28752 261 ft 7 kts 47°
2026-05-03 20:49 53.36690 -2.28685 261 ft 10 kts 44°
2026-05-03 20:50 53.36744 -2.28589 261 ft 8 kts 61°
2026-05-03 20:50 53.36739 -2.28545 261 ft 11 kts 111°
2026-05-03 20:50 53.36710 -2.28493 261 ft 5 kts 133°
2026-05-03 20:50 53.36701 -2.28476 261 ft 0 kts 133°